TimeAKDT,TemperatureF,Dew PointF,Humidity,Sea Level PressureIn,VisibilityMPH,Wind Direction,Wind SpeedMPH,Gust SpeedMPH,PrecipitationIn,Events,Conditions,WindDirDegrees,DateUTC
12:53 AM,61.0,39.9,46,29.99,10.0,South,3.5,-,N/A,,Scattered Clouds,170,2013-06-12 08:53:00
1:53 AM,57.0,39.9,53,29.99,10.0,Calm,Calm,-,N/A,,Scattered Clouds,0,2013-06-12 09:53:00
2:53 AM,57.9,41.0,53,29.99,10.0,Calm,Calm,-,N/A,,Scattered Clouds,0,2013-06-12 10:53:00
3:53 AM,57.0,43.0,59,30.00,10.0,Calm,Calm,-,N/A,,Scattered Clouds,0,2013-06-12 11:53:00
4:53 AM,55.9,42.1,60,30.00,10.0,Calm,Calm,-,N/A,,Scattered Clouds,0,2013-06-12 12:53:00
5:53 AM,55.0,42.1,62,30.00,10.0,Calm,Calm,-,N/A,,Mostly Cloudy,0,2013-06-12 13:53:00
6:53 AM,57.0,43.0,59,30.00,10.0,Calm,Calm,-,N/A,,Partly Cloudy,0,2013-06-12 14:53:00
7:53 AM,61.0,43.0,52,29.99,10.0,South,4.6,-,N/A,,Clear,190,2013-06-12 15:53:00
8:53 AM,60.1,46.0,60,30.00,10.0,NW,4.6,-,N/A,,Clear,310,2013-06-12 16:53:00
9:53 AM,66.0,43.0,43,29.99,10.0,South,3.5,-,N/A,,Clear,190,2013-06-12 17:53:00
10:53 AM,69.1,44.1,40,29.99,10.0,Calm,Calm,-,N/A,,Partly Cloudy,0,2013-06-12 18:53:00
11:53 AM,70.0,46.0,42,29.98,10.0,WNW,5.8,-,N/A,,Partly Cloudy,300,2013-06-12 19:53:00
12:53 PM,71.1,46.0,41,29.97,10.0,WNW,5.8,-,N/A,,Partly Cloudy,300,2013-06-12 20:53:00
1:53 PM,73.9,43.0,33,29.97,10.0,West,4.6,-,N/A,,Scattered Clouds,270,2013-06-12 21:53:00
2:53 PM,73.9,42.1,32,29.96,10.0,NNW,5.8,-,N/A,,Scattered Clouds,340,2013-06-12 22:53:00
3:53 PM,75.0,41.0,29,29.95,10.0,WNW,6.9,-,N/A,,Scattered Clouds,290,2013-06-12 23:53:00
4:53 PM,75.9,37.9,25,29.94,10.0,Variable,3.5,-,N/A,,Scattered Clouds,0,2013-06-13 00:53:00
5:53 PM,75.9,46.0,35,29.93,10.0,WNW,8.1,-,N/A,,Scattered Clouds,300,2013-06-13 01:53:00
6:53 PM,73.9,48.9,41,29.93,10.0,WNW,5.8,-,N/A,,Clear,290,2013-06-13 02:53:00
7:53 PM,73.9,39.9,29,29.93,10.0,SW,6.9,-,N/A,,Scattered Clouds,230,2013-06-13 03:53:00
8:53 PM,73.0,39.9,30,29.93,10.0,SW,5.8,-,N/A,,Partly Cloudy,230,2013-06-13 04:53:00
9:53 PM,71.1,37.0,29,29.93,10.0,SW,4.6,-,N/A,,Clear,230,2013-06-13 05:53:00
10:53 PM,69.1,37.9,32,29.94,10.0,SSW,4.6,-,N/A,,Partly Cloudy,210,2013-06-13 06:53:00
11:53 PM,64.9,39.0,39,29.95,10.0,Calm,Calm,-,N/A,,Partly Cloudy,0,2013-06-13 07:53:00